Year,Month,Day,Hour,Minute,Value (Times are PST for temperature in C)
2016,08,19,00,00,20.20
2016,08,19,00,01,20.20
2016,08,19,00,02,20.00
2016,08,19,00,03,20.00
2016,08,19,00,04,19.90
2016,08,19,00,05,19.80
2016,08,19,00,06,19.80
2016,08,19,00,07,19.80
2016,08,19,00,08,19.70
2016,08,19,00,09,19.70
2016,08,19,00,10,19.70
2016,08,19,00,11,19.60
2016,08,19,00,12,19.60
2016,08,19,00,13,19.50
2016,08,19,00,14,19.50
2016,08,19,00,15,19.50
2016,08,19,00,16,19.50
2016,08,19,00,17,19.50
2016,08,19,00,18,19.50
2016,08,19,00,19,19.50
2016,08,19,00,20,19.50
2016,08,19,00,21,19.60
2016,08,19,00,22,19.60
2016,08,19,00,23,19.60
2016,08,19,00,24,19.60
2016,08,19,00,25,19.60
2016,08,19,00,26,19.60
2016,08,19,00,27,19.70
2016,08,19,00,28,19.70
2016,08,19,00,29,19.70
2016,08,19,00,30,19.80
2016,08,19,00,31,19.80
2016,08,19,00,32,19.80
2016,08,19,00,33,19.80
2016,08,19,00,34,19.80
2016,08,19,00,35,19.80
2016,08,19,00,36,19.90
2016,08,19,00,37,19.90
2016,08,19,00,38,19.90
2016,08,19,00,39,19.90
2016,08,19,00,40,19.90
2016,08,19,00,41,20.00
2016,08,19,00,42,20.00
2016,08,19,00,43,20.10
2016,08,19,00,44,20.10
2016,08,19,00,45,20.10
2016,08,19,00,46,20.20
2016,08,19,00,47,20.20
2016,08,19,00,48,20.20
2016,08,19,00,49,20.20
2016,08,19,00,50,20.20
2016,08,19,00,51,20.20
2016,08,19,00,52,20.20
2016,08,19,00,53,20.20
2016,08,19,00,54,20.10
2016,08,19,00,55,20.10
2016,08,19,00,56,20.10
2016,08,19,00,57,20.00
2016,08,19,00,58,19.90
2016,08,19,00,59,19.90
2016,08,19,01,00,19.80
2016,08,19,01,01,19.80
2016,08,19,01,02,19.70
2016,08,19,01,03,19.70
2016,08,19,01,04,19.70
2016,08,19,01,05,19.70
2016,08,19,01,06,19.80
2016,08,19,01,07,19.80
2016,08,19,01,08,19.80
2016,08,19,01,09,19.90
2016,08,19,01,10,19.90
2016,08,19,01,11,19.90
2016,08,19,01,12,19.90
2016,08,19,01,13,19.90
2016,08,19,01,14,19.90
2016,08,19,01,15,19.90
2016,08,19,01,16,19.90
2016,08,19,01,17,19.90
2016,08,19,01,18,19.90
2016,08,19,01,19,19.90
2016,08,19,01,20,19.90
2016,08,19,01,21,20.00
2016,08,19,01,22,20.00
2016,08,19,01,23,20.00
2016,08,19,01,24,20.00
2016,08,19,01,25,20.00
2016,08,19,01,26,20.00
2016,08,19,01,27,20.00
2016,08,19,01,28,20.00
2016,08,19,01,29,20.00
2016,08,19,01,30,20.00
2016,08,19,01,31,20.00
2016,08,19,01,32,19.90
2016,08,19,01,33,19.90
2016,08,19,01,34,20.00
2016,08,19,01,35,20.00
2016,08,19,01,36,20.00
2016,08,19,01,37,20.10
2016,08,19,01,38,20.00
2016,08,19,01,39,20.00
2016,08,19,01,40,20.00
2016,08,19,01,41,20.00
2016,08,19,01,42,19.90
2016,08,19,01,43,19.90
2016,08,19,01,44,19.90
2016,08,19,01,45,19.90
2016,08,19,01,46,19.90
2016,08,19,01,47,19.90
2016,08,19,01,48,19.80
2016,08,19,01,49,19.80
2016,08,19,01,50,19.80
2016,08,19,01,51,19.80
2016,08,19,01,52,19.80
2016,08,19,01,53,19.80
2016,08,19,01,54,19.80
2016,08,19,01,55,19.80
2016,08,19,01,56,19.80
2016,08,19,01,57,19.80
2016,08,19,01,58,19.70
2016,08,19,01,59,19.70
2016,08,19,02,00,19.70
2016,08,19,02,01,19.70
2016,08,19,02,02,19.70
2016,08,19,02,03,19.70
2016,08,19,02,04,19.70
2016,08,19,02,05,19.70
2016,08,19,02,06,19.70
2016,08,19,02,07,19.70
2016,08,19,02,08,19.70
2016,08,19,02,09,19.70
2016,08,19,02,10,19.70
2016,08,19,02,11,19.80
2016,08,19,02,12,19.80
2016,08,19,02,13,19.80
2016,08,19,02,14,19.70
2016,08,19,02,15,19.70
2016,08,19,02,16,19.70
2016,08,19,02,17,19.70
2016,08,19,02,18,19.70
2016,08,19,02,19,19.60
2016,08,19,02,20,19.60
2016,08,19,02,21,19.60
2016,08,19,02,22,19.60
2016,08,19,02,23,19.60
2016,08,19,02,24,19.50
2016,08,19,02,25,19.50
2016,08,19,02,26,19.50
2016,08,19,02,27,19.50
2016,08,19,02,28,19.40
2016,08,19,02,29,19.40
2016,08,19,02,30,19.40
2016,08,19,02,31,19.40
2016,08,19,02,32,19.40
2016,08,19,02,33,19.40
2016,08,19,02,34,19.40
2016,08,19,02,35,19.40
2016,08,19,02,36,19.40
2016,08,19,02,37,19.40
2016,08,19,02,38,19.40
2016,08,19,02,39,19.40
2016,08,19,02,40,19.40
2016,08,19,02,41,19.40
2016,08,19,02,42,19.40
2016,08,19,02,43,19.40
2016,08,19,02,44,19.40
2016,08,19,02,45,19.50
2016,08,19,02,46,19.50
2016,08,19,02,47,19.50
2016,08,19,02,48,19.50
2016,08,19,02,49,19.60
2016,08,19,02,50,19.60
2016,08,19,02,51,19.50
2016,08,19,02,52,19.60
2016,08,19,02,53,19.60
2016,08,19,02,54,19.50
2016,08,19,02,55,19.50
2016,08,19,02,56,19.50
2016,08,19,02,57,19.50
2016,08,19,02,58,19.50
2016,08,19,02,59,19.40
2016,08,19,03,00,19.50
2016,08,19,03,01,19.40
2016,08,19,03,02,19.40
2016,08,19,03,03,19.40
2016,08,19,03,04,19.40
2016,08,19,03,05,19.40
2016,08,19,03,06,19.40
2016,08,19,03,07,19.50
2016,08,19,03,08,19.50
2016,08,19,03,09,19.40
2016,08,19,03,10,19.40
2016,08,19,03,11,19.40
2016,08,19,03,12,19.30
2016,08,19,03,13,19.30
2016,08,19,03,14,19.30
2016,08,19,03,15,19.30
2016,08,19,03,16,19.20
2016,08,19,03,17,19.20
2016,08,19,03,18,19.20
2016,08,19,03,19,19.20
2016,08,19,03,20,19.20
2016,08,19,03,21,19.10
2016,08,19,03,22,19.10
2016,08,19,03,23,19.10
2016,08,19,03,24,19.00
2016,08,19,03,25,19.00
2016,08,19,03,26,18.90
2016,08,19,03,27,18.90
2016,08,19,03,28,18.80
2016,08,19,03,29,18.80
2016,08,19,03,30,18.80
2016,08,19,03,31,18.70
2016,08,19,03,32,18.70
2016,08,19,03,33,18.60
2016,08,19,03,34,18.60
2016,08,19,03,35,18.60
2016,08,19,03,36,18.50
2016,08,19,03,37,18.40
2016,08,19,03,38,18.40
2016,08,19,03,39,18.30
2016,08,19,03,40,18.30
2016,08,19,03,41,18.30
2016,08,19,03,42,18.20
2016,08,19,03,43,18.20
2016,08,19,03,44,18.20
2016,08,19,03,45,18.20
2016,08,19,03,46,18.20
2016,08,19,03,47,18.20
2016,08,19,03,48,18.20
2016,08,19,03,49,18.20
2016,08,19,03,50,18.20
2016,08,19,03,51,18.20
2016,08,19,03,52,18.30
2016,08,19,03,53,18.30
2016,08,19,03,54,18.30
2016,08,19,03,55,18.30
2016,08,19,03,56,18.30
2016,08,19,03,57,18.30
2016,08,19,03,58,18.30
2016,08,19,03,59,18.30
2016,08,19,04,00,18.30
2016,08,19,04,01,18.30
2016,08,19,04,02,18.30
2016,08,19,04,03,18.30
2016,08,19,04,04,18.20
2016,08,19,04,05,18.20
2016,08,19,04,06,18.20
2016,08,19,04,07,18.20
2016,08,19,04,08,18.20
2016,08,19,04,09,18.20
2016,08,19,04,10,18.20
2016,08,19,04,11,18.20
2016,08,19,04,12,18.20
2016,08,19,04,13,18.10
2016,08,19,04,14,18.10
2016,08,19,04,15,18.10
2016,08,19,04,16,18.10
2016,08,19,04,17,18.00
2016,08,19,04,18,18.00
2016,08,19,04,19,18.00
2016,08,19,04,20,18.00
2016,08,19,04,21,17.90
2016,08,19,04,22,17.90
2016,08,19,04,23,17.90
2016,08,19,04,24,17.90
2016,08,19,04,25,17.80
2016,08,19,04,26,17.80
2016,08,19,04,27,17.80
2016,08,19,04,28,17.80
2016,08,19,04,29,17.70
2016,08,19,04,30,17.70
2016,08,19,04,31,17.70
2016,08,19,04,32,17.70
2016,08,19,04,33,17.60
2016,08,19,04,34,17.60
2016,08,19,04,35,17.60
2016,08,19,04,36,17.60
2016,08,19,04,37,17.50
2016,08,19,04,38,17.50
2016,08,19,04,39,17.50
2016,08,19,04,40,17.50
2016,08,19,04,41,17.40
2016,08,19,04,42,17.40
2016,08,19,04,43,17.40
2016,08,19,04,44,17.40
2016,08,19,04,45,17.30
2016,08,19,04,46,17.30
2016,08,19,04,47,17.30
2016,08,19,04,48,17.30
2016,08,19,04,49,17.30
2016,08,19,04,50,17.30
2016,08,19,04,51,17.30
2016,08,19,04,52,17.30
2016,08,19,04,53,17.30
2016,08,19,04,54,17.30
2016,08,19,04,55,17.30
2016,08,19,04,56,17.30
2016,08,19,04,57,17.20
2016,08,19,04,58,17.20
2016,08,19,04,59,17.20
2016,08,19,05,00,17.20
2016,08,19,05,01,17.10
2016,08,19,05,02,17.10
2016,08,19,05,03,17.10
2016,08,19,05,04,17.00
2016,08,19,05,05,17.00
2016,08,19,05,06,17.00
2016,08,19,05,07,17.00
2016,08,19,05,08,16.90
2016,08,19,05,09,16.90
2016,08,19,05,10,17.00
2016,08,19,05,11,17.00
2016,08,19,05,12,16.90
2016,08,19,05,13,16.90
2016,08,19,05,14,16.90
2016,08,19,05,15,16.90
2016,08,19,05,16,16.90
2016,08,19,05,17,16.90
2016,08,19,05,18,16.90
2016,08,19,05,19,16.90
2016,08,19,05,20,16.90
2016,08,19,05,21,16.90
2016,08,19,05,22,16.90
2016,08,19,05,23,16.90
2016,08,19,05,24,16.90
2016,08,19,05,25,16.90
2016,08,19,05,26,16.80
2016,08,19,05,27,16.80
2016,08,19,05,28,16.80
2016,08,19,05,29,16.80
2016,08,19,05,30,16.80
2016,08,19,05,31,16.70
2016,08,19,05,32,16.70
2016,08,19,05,33,16.70
2016,08,19,05,34,16.70
2016,08,19,05,35,16.70
2016,08,19,05,36,16.70
2016,08,19,05,37,16.70
2016,08,19,05,38,16.60
2016,08,19,05,39,16.60
2016,08,19,05,40,16.60
2016,08,19,05,41,16.50
2016,08,19,05,42,16.50
2016,08,19,05,43,16.50
2016,08,19,05,44,16.40
2016,08,19,05,45,16.40
2016,08,19,05,46,16.40
2016,08,19,05,47,16.40
2016,08,19,05,48,16.40
2016,08,19,05,49,16.40
2016,08,19,05,50,16.40
2016,08,19,05,51,16.40
2016,08,19,05,52,16.40
2016,08,19,05,53,16.40
2016,08,19,05,54,16.40
2016,08,19,05,55,16.40
2016,08,19,05,56,16.40
2016,08,19,05,57,16.40
2016,08,19,05,58,16.40
2016,08,19,05,59,16.30
2016,08,19,06,00,16.40
2016,08,19,06,01,16.40
2016,08,19,06,02,16.40
2016,08,19,06,03,16.40
2016,08,19,06,04,16.40
2016,08,19,06,05,16.40
2016,08,19,06,06,16.40
2016,08,19,06,07,16.40
2016,08,19,06,08,16.40
2016,08,19,06,09,16.30
2016,08,19,06,10,16.30
2016,08,19,06,11,16.30
2016,08,19,06,12,16.30
2016,08,19,06,13,16.30
2016,08,19,06,14,16.30
2016,08,19,06,15,16.40
2016,08,19,06,16,16.30
2016,08,19,06,17,16.30
2016,08,19,06,18,16.30
2016,08,19,06,19,16.30
2016,08,19,06,20,16.30
2016,08,19,06,21,16.30
2016,08,19,06,22,16.30
2016,08,19,06,23,16.30
2016,08,19,06,24,16.30
2016,08,19,06,25,16.30
2016,08,19,06,26,16.30
2016,08,19,06,27,16.30
2016,08,19,06,28,16.30
2016,08,19,06,29,16.30
2016,08,19,06,30,16.30
2016,08,19,06,31,16.30
2016,08,19,06,32,16.40
2016,08,19,06,33,16.40
2016,08,19,06,34,16.40
2016,08,19,06,35,16.50
2016,08,19,06,36,16.60
2016,08,19,06,37,16.60
2016,08,19,06,38,16.70
2016,08,19,06,39,16.80
2016,08,19,06,40,16.80
2016,08,19,06,41,16.80
2016,08,19,06,42,16.80
2016,08,19,06,43,16.80
2016,08,19,06,44,16.90
2016,08,19,06,45,16.90
2016,08,19,06,46,17.00
2016,08,19,06,47,17.00
2016,08,19,06,48,17.10
2016,08,19,06,49,17.10
2016,08,19,06,50,17.20
2016,08,19,06,51,17.20
2016,08,19,06,52,17.30
2016,08,19,06,53,17.30
2016,08,19,06,54,17.30
2016,08,19,06,55,17.30
2016,08,19,06,56,17.30
2016,08,19,06,57,17.30
2016,08,19,06,58,17.30
2016,08,19,06,59,17.30
2016,08,19,07,00,17.30
2016,08,19,07,01,17.30
2016,08,19,07,02,17.30
2016,08,19,07,03,17.30
2016,08,19,07,04,17.20
2016,08,19,07,05,17.20
2016,08,19,07,06,17.20
2016,08,19,07,07,17.20
2016,08,19,07,08,17.20
2016,08,19,07,09,17.30
2016,08,19,07,10,17.30
2016,08,19,07,11,17.30
2016,08,19,07,12,17.30
2016,08,19,07,13,17.30
2016,08,19,07,14,17.30
2016,08,19,07,15,17.30
2016,08,19,07,16,17.30
2016,08,19,07,17,17.30
2016,08,19,07,18,17.30
2016,08,19,07,19,17.30
2016,08,19,07,20,17.40
2016,08,19,07,21,17.40
2016,08,19,07,22,17.50
2016,08,19,07,23,17.60
2016,08,19,07,24,17.60
2016,08,19,07,25,17.70
2016,08,19,07,26,17.70
2016,08,19,07,27,17.70
2016,08,19,07,28,17.70
2016,08,19,07,29,17.70
2016,08,19,07,30,17.70
2016,08,19,07,31,17.80
2016,08,19,07,32,17.80
2016,08,19,07,33,17.80
2016,08,19,07,34,17.80
2016,08,19,07,35,17.80
2016,08,19,07,36,17.80
2016,08,19,07,37,17.80
2016,08,19,07,38,17.80
2016,08,19,07,39,17.80
2016,08,19,07,40,17.80
2016,08,19,07,41,17.80
2016,08,19,07,42,17.90
2016,08,19,07,43,17.90
2016,08,19,07,44,17.90
2016,08,19,07,45,18.00
2016,08,19,07,46,18.00
2016,08,19,07,47,18.00
2016,08,19,07,48,18.10
2016,08,19,07,49,18.10
2016,08,19,07,50,18.10
2016,08,19,07,51,18.10
2016,08,19,07,52,18.20
2016,08,19,07,53,18.20
2016,08,19,07,54,18.30
2016,08,19,07,55,18.30
2016,08,19,07,56,18.40
2016,08,19,07,57,18.50
2016,08,19,07,58,18.50
2016,08,19,07,59,18.60
2016,08,19,08,00,18.60
2016,08,19,08,01,18.60
2016,08,19,08,02,18.70
2016,08,19,08,03,18.70
2016,08,19,08,04,18.70
2016,08,19,08,05,18.70
2016,08,19,08,06,18.80
2016,08,19,08,07,18.80
2016,08,19,08,08,18.80
2016,08,19,08,09,18.80
2016,08,19,08,10,18.90
2016,08,19,08,11,18.90
2016,08,19,08,12,18.90
2016,08,19,08,13,18.90
2016,08,19,08,14,18.90
2016,08,19,08,15,18.90
2016,08,19,08,16,19.00
2016,08,19,08,17,19.00
2016,08,19,08,18,19.10
2016,08,19,08,19,19.10
2016,08,19,08,20,19.20
2016,08,19,08,21,19.30
2016,08,19,08,22,19.30
2016,08,19,08,23,19.40
2016,08,19,08,24,19.50
2016,08,19,08,25,19.60
2016,08,19,08,26,19.80
2016,08,19,08,27,19.90
2016,08,19,08,28,20.00
2016,08,19,08,29,20.10
2016,08,19,08,30,20.30
2016,08,19,08,31,20.40
2016,08,19,08,32,20.50
2016,08,19,08,33,20.60
2016,08,19,08,34,20.60
2016,08,19,08,35,20.70
2016,08,19,08,36,20.80
2016,08,19,08,37,20.80
2016,08,19,08,38,20.90
2016,08,19,08,39,20.90
2016,08,19,08,40,21.00
2016,08,19,08,41,21.10
2016,08,19,08,42,21.10
2016,08,19,08,43,21.20
2016,08,19,08,44,21.20
2016,08,19,08,45,21.30
2016,08,19,08,46,21.30
2016,08,19,08,47,21.40
2016,08,19,08,48,21.40
2016,08,19,08,49,21.50
2016,08,19,08,50,21.50
2016,08,19,08,51,21.60
2016,08,19,08,52,21.60
2016,08,19,08,53,21.70
2016,08,19,08,54,21.70
2016,08,19,08,55,21.80
2016,08,19,08,56,21.80
2016,08,19,08,57,21.90
2016,08,19,08,58,21.90
2016,08,19,08,59,21.90
2016,08,19,09,00,21.90
2016,08,19,09,01,21.90
2016,08,19,09,02,22.00
2016,08,19,09,03,22.00
2016,08,19,09,04,22.10
2016,08,19,09,05,22.10
2016,08,19,09,06,22.20
2016,08,19,09,07,22.20
2016,08,19,09,08,22.30
2016,08,19,09,09,22.30
2016,08,19,09,10,22.40
2016,08,19,09,11,22.50
2016,08,19,09,12,22.60
2016,08,19,09,13,22.70
2016,08,19,09,14,22.80
2016,08,19,09,15,22.80
2016,08,19,09,16,22.90
2016,08,19,09,17,22.90
2016,08,19,09,18,22.90
2016,08,19,09,19,23.00
2016,08,19,09,20,23.00
2016,08,19,09,21,23.10
2016,08,19,09,22,23.20
2016,08,19,09,23,23.20
2016,08,19,09,24,23.20
2016,08,19,09,25,23.20
2016,08,19,09,26,23.30
2016,08,19,09,27,23.40
2016,08,19,09,28,23.40
2016,08,19,09,29,23.50
2016,08,19,09,30,23.60
2016,08,19,09,31,23.70
2016,08,19,09,32,23.80
2016,08,19,09,33,23.80
2016,08,19,09,34,23.90
2016,08,19,09,35,23.90
2016,08,19,09,36,23.90
2016,08,19,09,37,23.90
2016,08,19,09,38,23.90
2016,08,19,09,39,23.90
2016,08,19,09,40,24.00
2016,08,19,09,41,24.00
2016,08,19,09,42,24.10
2016,08,19,09,43,24.10
2016,08,19,09,44,24.20
2016,08,19,09,45,24.20
2016,08,19,09,46,24.20
2016,08,19,09,47,24.20
2016,08,19,09,48,24.20
2016,08,19,09,49,24.20
2016,08,19,09,50,24.20
2016,08,19,09,51,24.30
2016,08,19,09,52,24.30
2016,08,19,09,53,24.40
2016,08,19,09,54,24.40
2016,08,19,09,55,24.50
2016,08,19,09,56,24.60
2016,08,19,09,57,24.70
2016,08,19,09,58,24.80
2016,08,19,09,59,24.80
2016,08,19,10,00,24.80
2016,08,19,10,01,24.80
2016,08,19,10,02,24.80
2016,08,19,10,03,24.80
2016,08,19,10,04,24.80
2016,08,19,10,05,24.90
2016,08,19,10,06,24.90
2016,08,19,10,07,24.90
2016,08,19,10,08,25.00
2016,08,19,10,09,25.00
2016,08,19,10,10,25.10
2016,08,19,10,11,25.20
2016,08,19,10,12,25.30
2016,08,19,10,13,25.30
2016,08,19,10,14,25.40
2016,08,19,10,15,25.50
2016,08,19,10,16,25.60
2016,08,19,10,17,25.70
2016,08,19,10,18,25.70
2016,08,19,10,19,25.70
2016,08,19,10,20,25.70
2016,08,19,10,21,25.70
2016,08,19,10,22,25.80
2016,08,19,10,23,25.80
2016,08,19,10,24,25.90
2016,08,19,10,25,25.90
2016,08,19,10,26,26.00
2016,08,19,10,27,26.10
2016,08,19,10,28,26.20
2016,08,19,10,29,26.30
2016,08,19,10,30,26.40
2016,08,19,10,31,26.40
2016,08,19,10,32,26.50
2016,08,19,10,33,26.50
2016,08,19,10,34,26.50
2016,08,19,10,35,26.50
2016,08,19,10,36,26.60
2016,08,19,10,37,26.60
2016,08,19,10,38,26.60
2016,08,19,10,39,26.70
2016,08,19,10,40,26.70
2016,08,19,10,41,26.70
2016,08,19,10,42,26.70
2016,08,19,10,43,26.70
2016,08,19,10,44,26.70
2016,08,19,10,45,26.70
2016,08,19,10,46,26.70
2016,08,19,10,47,26.70
2016,08,19,10,48,26.70
2016,08,19,10,49,26.70
2016,08,19,10,50,26.80
2016,08,19,10,51,26.80
2016,08,19,10,52,26.90
2016,08,19,10,53,27.00
2016,08,19,10,54,27.10
2016,08,19,10,55,27.10
2016,08,19,10,56,27.10
2016,08,19,10,57,27.20
2016,08,19,10,58,27.20
2016,08,19,10,59,27.20
2016,08,19,11,00,27.20
2016,08,19,11,01,27.30
2016,08,19,11,02,27.30
2016,08,19,11,03,27.40
2016,08,19,11,04,27.50
2016,08,19,11,05,27.50
2016,08,19,11,06,27.60
2016,08,19,11,07,27.60
2016,08,19,11,08,27.60
2016,08,19,11,09,27.60
2016,08,19,11,10,27.60
2016,08,19,11,11,27.60
2016,08,19,11,12,27.60
2016,08,19,11,13,27.60
2016,08,19,11,14,27.60
2016,08,19,11,15,27.60
2016,08,19,11,16,27.60
2016,08,19,11,17,27.60
2016,08,19,11,18,27.70
2016,08,19,11,19,27.80
2016,08,19,11,20,27.80
2016,08,19,11,21,27.90
2016,08,19,11,22,27.90
2016,08,19,11,23,28.00
2016,08,19,11,24,28.00
2016,08,19,11,25,28.10
2016,08,19,11,26,28.10
2016,08,19,11,27,28.20
2016,08,19,11,28,28.20
2016,08,19,11,29,28.20
2016,08,19,11,30,28.20
2016,08,19,11,31,28.30
2016,08,19,11,32,28.30
2016,08,19,11,33,28.40
2016,08,19,11,34,28.40
2016,08,19,11,35,28.50
2016,08,19,11,36,28.60
2016,08,19,11,37,28.60
2016,08,19,11,38,28.70
2016,08,19,11,39,28.70
2016,08,19,11,40,28.80
2016,08,19,11,41,28.80
2016,08,19,11,42,28.90
2016,08,19,11,43,28.90
2016,08,19,11,44,28.90
2016,08,19,11,45,28.80
2016,08,19,11,46,28.70
2016,08,19,11,47,28.60
2016,08,19,11,48,28.60
2016,08,19,11,49,28.50
2016,08,19,11,50,28.40
2016,08,19,11,51,28.40
2016,08,19,11,52,28.40
2016,08,19,11,53,28.40
2016,08,19,11,54,28.40
2016,08,19,11,55,28.40
2016,08,19,11,56,28.50
2016,08,19,11,57,28.60
2016,08,19,11,58,28.60
2016,08,19,11,59,28.70
2016,08,19,12,00,28.70
2016,08,19,12,01,28.70
2016,08,19,12,02,28.70
2016,08,19,12,03,28.70
2016,08,19,12,04,28.80
2016,08,19,12,05,28.90
2016,08,19,12,06,29.00
2016,08,19,12,07,29.10
2016,08,19,12,08,29.20
2016,08,19,12,09,29.20
2016,08,19,12,10,29.30
2016,08,19,12,11,29.40
2016,08,19,12,12,29.40
2016,08,19,12,13,29.50
2016,08,19,12,14,29.50
2016,08,19,12,15,29.50
2016,08,19,12,16,29.60
2016,08,19,12,17,29.60
2016,08,19,12,18,29.60
2016,08,19,12,19,29.60
2016,08,19,12,20,29.50
2016,08,19,12,21,29.50
2016,08,19,12,22,29.50
2016,08,19,12,23,29.50
2016,08,19,12,24,29.50
2016,08,19,12,25,29.50
2016,08,19,12,26,29.50
2016,08,19,12,27,29.60
2016,08,19,12,28,29.60
2016,08,19,12,29,29.70
2016,08,19,12,30,29.80
2016,08,19,12,31,29.80
2016,08,19,12,32,29.80
2016,08,19,12,33,29.80
2016,08,19,12,34,29.80
2016,08,19,12,35,29.70
2016,08,19,12,36,29.70
2016,08,19,12,37,29.80
2016,08,19,12,38,29.80
2016,08,19,12,39,29.80
2016,08,19,12,40,29.70
2016,08,19,12,41,29.60
2016,08,19,12,42,29.60
2016,08,19,12,43,29.50
2016,08,19,12,44,29.50
2016,08,19,12,45,29.60
2016,08,19,12,46,29.60
2016,08,19,12,47,29.70
2016,08,19,12,48,29.80
2016,08,19,12,49,29.80
2016,08,19,12,50,29.80
2016,08,19,12,51,29.80
2016,08,19,12,52,29.80
2016,08,19,12,53,29.80
2016,08,19,12,54,29.80
2016,08,19,12,55,29.80
2016,08,19,12,56,29.80
2016,08,19,12,57,29.80
2016,08,19,12,58,29.80
2016,08,19,12,59,29.70
2016,08,19,13,00,29.80
2016,08,19,13,01,29.80
2016,08,19,13,02,29.80
2016,08,19,13,03,29.70
2016,08,19,13,04,29.60
2016,08,19,13,05,29.50
2016,08,19,13,06,29.40
2016,08,19,13,07,29.40
2016,08,19,13,08,29.30
2016,08,19,13,09,29.20
2016,08,19,13,10,29.10
2016,08,19,13,11,29.00
2016,08,19,13,12,28.90
2016,08,19,13,13,28.80
2016,08,19,13,14,28.70
2016,08,19,13,15,28.60
2016,08,19,13,16,28.50
2016,08,19,13,17,28.40
2016,08,19,13,18,28.30
2016,08,19,13,19,28.20
2016,08,19,13,20,28.00
2016,08,19,13,21,27.90
2016,08,19,13,22,27.90
2016,08,19,13,23,27.80
2016,08,19,13,24,27.70
2016,08,19,13,25,27.70
2016,08,19,13,26,27.60
2016,08,19,13,27,27.60
2016,08,19,13,28,27.60
2016,08,19,13,29,27.70
2016,08,19,13,30,27.70
2016,08,19,13,31,27.80
2016,08,19,13,32,27.80
2016,08,19,13,33,27.90
2016,08,19,13,34,27.90
2016,08,19,13,35,27.90
2016,08,19,13,36,27.90
2016,08,19,13,37,27.90
2016,08,19,13,38,27.90
2016,08,19,13,39,27.90
2016,08,19,13,40,27.80
2016,08,19,13,41,27.80
2016,08,19,13,42,27.90
2016,08,19,13,43,27.80
2016,08,19,13,44,27.80
2016,08,19,13,45,27.80
2016,08,19,13,46,27.80
2016,08,19,13,47,27.70
2016,08,19,13,48,27.70
2016,08,19,13,49,27.70
2016,08,19,13,50,27.70
2016,08,19,13,51,27.70
2016,08,19,13,52,27.80
2016,08,19,13,53,27.80
2016,08,19,13,54,27.80
2016,08,19,13,55,27.80
2016,08,19,13,56,27.90
2016,08,19,13,57,28.00
2016,08,19,13,58,28.10
2016,08,19,13,59,28.20
2016,08,19,14,00,28.40
2016,08,19,14,01,28.50
2016,08,19,14,02,28.50
2016,08,19,14,03,28.60
2016,08,19,14,04,28.50
2016,08,19,14,05,28.50
2016,08,19,14,06,28.50
2016,08,19,14,07,28.50
2016,08,19,14,08,28.50
2016,08,19,14,09,28.60
2016,08,19,14,10,28.60
2016,08,19,14,11,28.70
2016,08,19,14,12,28.80
2016,08,19,14,13,28.80
2016,08,19,14,14,28.90
2016,08,19,14,15,28.90
2016,08,19,14,16,29.00
2016,08,19,14,17,29.00
2016,08,19,14,18,29.10
2016,08,19,14,19,29.10
2016,08,19,14,20,29.10
2016,08,19,14,21,29.20
2016,08,19,14,22,29.20
2016,08,19,14,23,29.30
2016,08,19,14,24,29.40
2016,08,19,14,25,29.50
2016,08,19,14,26,29.60
2016,08,19,14,27,29.70
2016,08,19,14,28,29.80
2016,08,19,14,29,29.90
2016,08,19,14,30,30.00
2016,08,19,14,31,30.00
2016,08,19,14,32,30.00
2016,08,19,14,33,30.00
2016,08,19,14,34,30.00
2016,08,19,14,35,30.10
2016,08,19,14,36,30.20
2016,08,19,14,37,30.30
2016,08,19,14,38,30.40
2016,08,19,14,39,30.40
2016,08,19,14,40,30.40
2016,08,19,14,41,30.50
2016,08,19,14,42,30.50
2016,08,19,14,43,30.50
2016,08,19,14,44,30.40
2016,08,19,14,45,30.40
2016,08,19,14,46,30.40
2016,08,19,14,47,30.40
2016,08,19,14,48,30.30
2016,08,19,14,49,30.30
2016,08,19,14,50,30.30
2016,08,19,14,51,30.20
2016,08,19,14,52,30.20
2016,08,19,14,53,30.10
2016,08,19,14,54,30.10
2016,08,19,14,55,30.20
2016,08,19,14,56,30.20
2016,08,19,14,57,30.20
2016,08,19,14,58,30.20
2016,08,19,14,59,30.30
2016,08,19,15,00,30.30
2016,08,19,15,01,30.30
2016,08,19,15,02,30.30
2016,08,19,15,03,30.40
2016,08,19,15,04,30.40
2016,08,19,15,05,30.50
2016,08,19,15,06,30.60
2016,08,19,15,07,30.60
2016,08,19,15,08,30.60
2016,08,19,15,09,30.70
2016,08,19,15,10,30.70
2016,08,19,15,11,30.70
2016,08,19,15,12,30.70
2016,08,19,15,13,30.70
2016,08,19,15,14,30.70
2016,08,19,15,15,30.80
2016,08,19,15,16,30.80
2016,08,19,15,17,30.90
2016,08,19,15,18,31.00
2016,08,19,15,19,31.00
2016,08,19,15,20,31.10
2016,08,19,15,21,31.20
2016,08,19,15,22,31.20
2016,08,19,15,23,31.30
2016,08,19,15,24,31.40
2016,08,19,15,25,31.40
2016,08,19,15,26,31.40
2016,08,19,15,27,31.50
2016,08,19,15,28,31.50
2016,08,19,15,29,31.50
2016,08,19,15,30,31.50
2016,08,19,15,31,31.60
2016,08,19,15,32,31.60
2016,08,19,15,33,31.60
2016,08,19,15,34,31.70
2016,08,19,15,35,31.80
2016,08,19,15,36,31.80
2016,08,19,15,37,31.90
2016,08,19,15,38,32.00
2016,08,19,15,39,32.10
2016,08,19,15,40,32.10
2016,08,19,15,41,32.20
2016,08,19,15,42,32.20
2016,08,19,15,43,32.20
2016,08,19,15,44,32.30
2016,08,19,15,45,32.30
2016,08,19,15,46,32.40
2016,08,19,15,47,32.40
2016,08,19,15,48,32.40
2016,08,19,15,49,32.40
2016,08,19,15,50,32.30
2016,08,19,15,51,32.20
2016,08,19,15,52,32.10
2016,08,19,15,53,32.10
2016,08,19,15,54,32.00
2016,08,19,15,55,31.90
2016,08,19,15,56,31.90
2016,08,19,15,57,31.90
2016,08,19,15,58,31.90
2016,08,19,15,59,31.90
2016,08,19,16,00,31.90
2016,08,19,16,01,31.90
2016,08,19,16,02,31.90
2016,08,19,16,03,31.90
2016,08,19,16,04,31.90
2016,08,19,16,05,31.90
2016,08,19,16,06,32.00
2016,08,19,16,07,32.00
2016,08,19,16,08,32.00
2016,08,19,16,09,32.00
2016,08,19,16,10,32.00
2016,08,19,16,11,32.00
2016,08,19,16,12,32.00
2016,08,19,16,13,32.00
2016,08,19,16,14,32.00
2016,08,19,16,15,32.00
2016,08,19,16,16,32.10
2016,08,19,16,17,32.10
2016,08,19,16,18,32.10
2016,08,19,16,19,32.10
2016,08,19,16,20,32.00
2016,08,19,16,21,32.00
2016,08,19,16,22,32.00
2016,08,19,16,23,32.00
2016,08,19,16,24,32.00
2016,08,19,16,25,32.10
2016,08,19,16,26,32.10
2016,08,19,16,27,32.20
2016,08,19,16,28,32.30
2016,08,19,16,29,32.30
2016,08,19,16,30,32.30
2016,08,19,16,31,32.20
2016,08,19,16,32,32.20
2016,08,19,16,33,32.20
2016,08,19,16,34,32.20
2016,08,19,16,35,32.30
2016,08,19,16,36,32.30
2016,08,19,16,37,32.20
2016,08,19,16,38,32.20
2016,08,19,16,39,32.20
2016,08,19,16,40,32.20
2016,08,19,16,41,32.10
2016,08,19,16,42,32.10
2016,08,19,16,43,32.10
2016,08,19,16,44,32.00
2016,08,19,16,45,32.00
2016,08,19,16,46,32.00
2016,08,19,16,47,31.90
2016,08,19,16,48,31.90
2016,08,19,16,49,31.90
2016,08,19,16,50,31.80
2016,08,19,16,51,31.80
2016,08,19,16,52,31.80
2016,08,19,16,53,31.80
2016,08,19,16,54,31.80
2016,08,19,16,55,31.80
2016,08,19,16,56,31.90
2016,08,19,16,57,32.00
2016,08,19,16,58,32.00
2016,08,19,16,59,32.10
2016,08,19,17,00,32.20
2016,08,19,17,01,32.20
2016,08,19,17,02,32.20
2016,08,19,17,03,32.30
2016,08,19,17,04,32.30
2016,08,19,17,05,32.30
2016,08,19,17,06,32.40
2016,08,19,17,07,32.50
2016,08,19,17,08,32.50
2016,08,19,17,09,32.60
2016,08,19,17,10,32.60
2016,08,19,17,11,32.60
2016,08,19,17,12,32.60
2016,08,19,17,13,32.50
2016,08,19,17,14,32.50
2016,08,19,17,15,32.40
2016,08,19,17,16,32.40
2016,08,19,17,17,32.40
2016,08,19,17,18,32.40
2016,08,19,17,19,32.30